When you browse on this site, cookies collect data to enhance your experience and personalize the content and advertising you see.
Visit our Privacy Policy to learn more. By continuing to use the site, you agree to this use of cookies and data.
  • In Romania
  • List of Countries
  • For 7 days
  • Water Temperature
  • Weather Map
  • Weather Widgets
  • user-avatar
    Login

    Hourly Weather Kitzbuhel

    Today, 19 January, Sunday

    Time Temperature Precipitation Wind Pressure Humidity
    00:00 -3°C° 0.2 mm 1 mps 681 mmHg 90%
    01:00 -3°C° 0.2 mm 1 mps 681 mmHg 90%
    02:00 -3°C° 0.4 mm 1 mps 681 mmHg 92%
    03:00 -3°C° 0.4 mm 1 mps 681 mmHg 93%
    04:00 -4°C° 0.4 mm 1 mps 681 mmHg 94%
    05:00 -3°C° 0.4 mm 1 mps 682 mmHg 95%
    06:00 -3°C° 0.4 mm 1 mps 682 mmHg 96%
    07:00 -3°C° 0.4 mm 1 mps 682 mmHg 96%
    08:00 -2°C° 0.3 mm 1 mps 683 mmHg 95%
    09:00 -2°C° 0.3 mm 1 mps 683 mmHg 94%
    10:00 -2°C° 0.3 mm 1 mps 684 mmHg 93%
    11:00 -1°C° 0.2 mm 1 mps 684 mmHg 90%
    12:00 -1°C° 0.2 mm 1 mps 684 mmHg 87%
    13:00 0°C° 0.2 mm 1 mps 684 mmHg 84%
    14:00 -1°C° 0.1 mm 1 mps 684 mmHg 87%
    15:00 -1°C° 0.1 mm 1 mps 685 mmHg 89%
    16:00 -2°C° 0.1 mm 1 mps 685 mmHg 92%
    17:00 -3°C° 0 mm 1 mps 685 mmHg 93%
    18:00 -5°C° 0 mm 0 mps 686 mmHg 95%
    19:00 -6°C° 0 mm 0 mps 686 mmHg 97%
    20:00 -6°C° 0 mm 0 mps 687 mmHg 96%
    21:00 -6°C° 0 mm 1 mps 687 mmHg 95%
    22:00 -6°C° 0 mm 1 mps 688 mmHg 94%
    23:00 -7°C° 0 mm 1 mps 688 mmHg 93%

    Tomorrow, 20 January, Monday

    Time Temperature Precipitation Wind Pressure Humidity
    00:00 -7°C° 0 mm 1 mps 688 mmHg 91%
    01:00 -7°C° 0 mm 1 mps 689 mmHg 90%
    02:00 -8°C° 0 mm 1 mps 689 mmHg 89%
    03:00 -8°C° 0 mm 1 mps 689 mmHg 88%
    04:00 -8°C° 0 mm 1 mps 689 mmHg 88%
    05:00 -8°C° 0 mm 1 mps 689 mmHg 87%
    06:00 -8°C° 0 mm 1 mps 689 mmHg 86%
    07:00 -8°C° 0 mm 1 mps 689 mmHg 85%
    08:00 -7°C° 0 mm 1 mps 690 mmHg 83%
    09:00 -6°C° 0 mm 1 mps 690 mmHg 81%
    10:00 -4°C° 0 mm 1 mps 691 mmHg 80%
    11:00 -2°C° 0 mm 1 mps 691 mmHg 78%
    12:00 -1°C° 0 mm 1 mps 691 mmHg 76%
    13:00 0°C° 0 mm 1 mps 691 mmHg 74%
    14:00 -1°C° 0 mm 1 mps 691 mmHg 77%
    15:00 -1°C° 0 mm 1 mps 691 mmHg 79%
    16:00 -1°C° 0 mm 1 mps 690 mmHg 82%
    17:00 -2°C° 0 mm 1 mps 690 mmHg 79%
    18:00 -5°C° 0 mm 2 mps 690 mmHg 75%
    19:00 -6°C° 0 mm 2 mps 690 mmHg 72%
    20:00 -6°C° 0 mm 2 mps 691 mmHg 69%
    21:00 -5°C° 0 mm 2 mps 691 mmHg 66%
    22:00 -5°C° 0 mm 2 mps 691 mmHg 62%
    23:00 -5°C° 0 mm 2 mps 691 mmHg 61%

    Day after tomorrow, 21 January, Tuesday

    Time Temperature Precipitation Wind Pressure Humidity
    00:00 -4°C° 0 mm 2 mps 691 mmHg 60%
    01:00 -4°C° 0 mm 2 mps 691 mmHg 59%
    02:00 -4°C° 0 mm 2 mps 691 mmHg 58%
    03:00 -3°C° 0 mm 2 mps 691 mmHg 57%
    04:00 -3°C° 0 mm 2 mps 690 mmHg 57%
    05:00 -3°C° 0 mm 2 mps 690 mmHg 56%
    06:00 -3°C° 0 mm 2 mps 690 mmHg 55%
    07:00 -3°C° 0 mm 2 mps 690 mmHg 54%
    08:00 -1°C° 0 mm 2 mps 690 mmHg 56%
    09:00 +1°C° 0 mm 2 mps 690 mmHg 58%
    10:00 +4°C° 0 mm 1 mps 690 mmHg 60%
    11:00 +5°C° 0 mm 1 mps 690 mmHg 65%
    12:00 +5°C° 0 mm 1 mps 690 mmHg 71%
    13:00 +6°C° 0 mm 1 mps 690 mmHg 76%
    14:00 +5°C° 0 mm 1 mps 689 mmHg 75%
    15:00 +5°C° 0 mm 1 mps 689 mmHg 74%
    16:00 +4°C° 0 mm 1 mps 688 mmHg 74%
    17:00 +3°C° 0 mm 1 mps 688 mmHg 71%
    18:00 +2°C° 0 mm 1 mps 688 mmHg 69%
    19:00 +1°C° 0 mm 1 mps 688 mmHg 67%
    20:00 +1°C° 0 mm 1 mps 688 mmHg 66%
    21:00 +1°C° 0 mm 1 mps 688 mmHg 65%
    22:00 +1°C° 0 mm 1 mps 688 mmHg 64%
    23:00 +2°C° 0 mm 1 mps 688 mmHg 63%

    22 January, Wednesday

    Time Temperature Precipitation Wind Pressure Humidity
    00:00 +2°C° 0 mm 1 mps 688 mmHg 62%
    01:00 +2°C° 0 mm 1 mps 688 mmHg 62%
    02:00 +2°C° 0 mm 1 mps 687 mmHg 61%
    03:00 +2°C° 0 mm 1 mps 687 mmHg 60%
    04:00 +2°C° 0 mm 1 mps 687 mmHg 60%
    05:00 +1°C° 0 mm 1 mps 687 mmHg 59%
    06:00 +1°C° 0 mm 1 mps 686 mmHg 58%
    07:00 +1°C° 0 mm 1 mps 686 mmHg 58%
    08:00 +2°C° 0 mm 1 mps 687 mmHg 60%
    09:00 +4°C° 0 mm 1 mps 687 mmHg 62%
    10:00 +4°C° 0 mm 0 mps 687 mmHg 64%
    11:00 +4°C° 0 mm 0 mps 687 mmHg 70%
    12:00 +5°C° 0 mm 0 mps 687 mmHg 75%
    13:00 +5°C° 0 mm 0 mps 686 mmHg 80%
    14:00 +5°C° 0 mm 0 mps 686 mmHg 78%
    15:00 +4°C° 0 mm 0 mps 686 mmHg 76%
    16:00 +3°C° 0 mm 0 mps 685 mmHg 74%
    17:00 +3°C° 0 mm 0 mps 685 mmHg 72%
    18:00 +2°C° 0 mm 0 mps 685 mmHg 70%
    19:00 +2°C° 0 mm 1 mps 685 mmHg 67%
    20:00 +1°C° 0 mm 1 mps 685 mmHg 67%
    21:00 +1°C° 0 mm 1 mps 685 mmHg 66%
    22:00 +1°C° 0 mm 1 mps 685 mmHg 65%
    23:00 +1°C° 0 mm 1 mps 685 mmHg 64%

    23 January, Thursday

    Time Temperature Precipitation Wind Pressure Humidity
    00:00 +1°C° 0 mm 1 mps 685 mmHg 63%
    01:00 +1°C° 0 mm 1 mps 685 mmHg 62%
    02:00 +1°C° 0 mm 1 mps 685 mmHg 61%
    03:00 +1°C° 0 mm 1 mps 685 mmHg 60%
    04:00 +1°C° 0 mm 1 mps 684 mmHg 59%
    05:00 +1°C° 0 mm 1 mps 684 mmHg 58%
    06:00 +1°C° 0 mm 1 mps 684 mmHg 57%
    07:00 +1°C° 0 mm 1 mps 684 mmHg 56%
    08:00 +2°C° 0 mm 1 mps 684 mmHg 57%
    09:00 +3°C° 0 mm 1 mps 684 mmHg 59%
    10:00 +4°C° 0 mm 1 mps 685 mmHg 60%
    11:00 +5°C° 0 mm 1 mps 685 mmHg 64%
    12:00 +6°C° 0 mm 1 mps 684 mmHg 69%
    13:00 +7°C° 0 mm 1 mps 684 mmHg 73%
    14:00 +6°C° 0 mm 1 mps 684 mmHg 73%
    15:00 +4°C° 0 mm 2 mps 684 mmHg 74%
    16:00 +4°C° 0 mm 2 mps 683 mmHg 74%
    17:00 +3°C° 0 mm 2 mps 683 mmHg 71%
    18:00 +2°C° 0 mm 2 mps 683 mmHg 68%
    19:00 +1°C° 0 mm 2 mps 683 mmHg 66%
    20:00 +1°C° 0 mm 2 mps 683 mmHg 64%
    21:00 +1°C° 0 mm 2 mps 683 mmHg 62%
    22:00 +1°C° 0 mm 2 mps 683 mmHg 60%
    23:00 +1°C° 0 mm 2 mps 683 mmHg 59%

    24 January, Friday

    Time Temperature Precipitation Wind Pressure Humidity
    00:00 +1°C° 0 mm 2 mps 683 mmHg 58%
    01:00 +1°C° 0 mm 2 mps 683 mmHg 58%
    02:00 -1°C° 0 mm 2 mps 683 mmHg 57%
    03:00 -1°C° 0 mm 2 mps 683 mmHg 57%
    04:00 -1°C° 0 mm 2 mps 682 mmHg 56%
    05:00 -1°C° 0 mm 2 mps 682 mmHg 55%
    06:00 -1°C° 0 mm 2 mps 682 mmHg 55%
    07:00 -1°C° 0 mm 2 mps 682 mmHg 54%
    08:00 +1°C° 0 mm 2 mps 683 mmHg 56%
    09:00 +2°C° 0 mm 2 mps 683 mmHg 57%
    10:00 +4°C° 0 mm 2 mps 683 mmHg 59%
    11:00 +5°C° 0 mm 2 mps 683 mmHg 62%
    12:00 +6°C° 0 mm 1 mps 682 mmHg 65%
    13:00 +7°C° 0 mm 1 mps 682 mmHg 69%
    14:00 +6°C° 0 mm 2 mps 682 mmHg 67%
    15:00 +5°C° 0 mm 2 mps 682 mmHg 66%
    16:00 +5°C° 0 mm 2 mps 681 mmHg 65%
    17:00 +4°C° 0 mm 2 mps 681 mmHg 64%
    18:00 +3°C° 0 mm 2 mps 681 mmHg 63%
    19:00 +1°C° 0 mm 3 mps 681 mmHg 62%
    20:00 +1°C° 0 mm 3 mps 681 mmHg 62%
    21:00 +1°C° 0 mm 3 mps 681 mmHg 62%
    22:00 +1°C° 0 mm 3 mps 682 mmHg 62%
    23:00 +2°C° 0 mm 2 mps 681 mmHg 62%
    Show more